Location: Epalinges
(46.5518°N, 6.6683°E)
Time: 04:32:39
(UTC+00:00)

ERBS - Visible Passes

Search period start: 17 October 2021 00:00
Search period end: 27 October 2021 00:00
Orbit: 401 x 405 km, 57.0° (Epoch: 16 October)

Date Brightness Start Highest point End Pass type
(mag) Time Alt. Az. Time Alt. Az. Time Alt. Az.
22 Oct 5.3 05:07:09 10° SSE 05:08:58 14° SE 05:10:49 10° E visible
24 Oct 4.2 04:57:21 10° SSW 05:00:14 29° SE 05:03:08 10° ENE visible
25 Oct 5.1 04:06:14 10° SSE 04:08:11 15° SE 04:10:10 10° E visible
26 Oct 2.5 04:48:45 13° SW 04:51:32 65° SE 04:54:47 10° NE visible
